Regional Weather Roundup
Issued by NWS

Home | Current Version | Previous Version | Graphics & Text | Print | Product List | Glossary On
Versions: 1 2 3 4 5 6 7 8 9 10 11 12 13 14 15 16 17 18 19 20 21 22 23 24 25 26 27 28
000
ASUS45 KCYS 152210
RWRWY

WYOMING REGIONAL WEATHER ROUNDUP
NATIONAL WEATHER SERVICE CHEYENNE WY
300 PM MST SUN JAN 15 2017

NOTE:  "FAIR" INDICATES FEW OR NO CLOUDS BELOW 12,000 FEET
WITH NO SIGNIFICANT WEATHER AND/OR OBSTRUCTIONS TO VISIBILITY.

WYZ001-152300-
YELLOWSTONE NATIONAL PARK

CITY           SKY/WX    TMP DP  RH WIND       PRES   REMARKS
LK YELLOWSTONE   N/A      1  -5  75 CALM      30.04F
W YELLOWSTONE  NOT AVBL

$$
WYZ002>013-054>058-071-098>099-152300-
NORTHERN WYOMING

CITY           SKY/WX    TMP DP  RH WIND       PRES   REMARKS
JACKSON        SUNNY      0  -2  92 CALM      30.09F
CODY           FAIR      20   7  57 S6        29.99F WCI  12
GREYBULL       FAIR       2  -6  69 CALM      30.06F
WORLAND        FAIR      10   2  69 CALM      30.03F
SHERIDAN       FAIR      23   7  50 SE10      29.97F WCI  12
BUFFALO        FAIR      33   6  32 NW3       29.95S
GILLETTE       FAIR      34  19  54 S3        29.98F
HULETT         FAIR      32  18  55 SW3       29.99S
NEWCASTLE      FAIR      28  19  69 CALM      30.02F

$$
WYZ014>020-022>026-101>103-152300-
CENTRAL WYOMING

CITY           SKY/WX    TMP DP  RH WIND       PRES   REMARKS
BIG PINEY      FAIR      -2  -7  79 E3        30.03F
PINEDALE       FAIR       5   0  78 W3        30.03S
DUBOIS         NOT AVBL
LANDER         FAIR      11   4  73 N6        30.01F WCI   1
RIVERTON       FAIR      10   4  76 CALM      30.02F
CASPER         FAIR      30  18  60 SW9       29.98F WCI  22
DOUGLAS        FAIR      37  20  50 NW7       30.00S WCI  32

$$
WYZ021-027>030-104>119-152300-
SOUTHERN WYOMING

CITY           SKY/WX    TMP DP  RH WIND       PRES   REMARKS
EVANSTON       FAIR      11   7  84 S5        30.02S WCI   3
ROCK SPRINGS   FAIR       9   5  84 W8        30.03S WCI  -3
RAWLINS        FOG       18  14  84 CALM      30.00S VSB 1/2
LARAMIE        FAIR      20  16  84 W6        29.95S WCI  12
CHEYENNE       CLOUDY    38  21  50 NE7       29.95F WCI  33
TORRINGTON     FAIR      40  22  48 CALM      30.00F

$$




USA.gov is the U.S. government's official web portal to all federal, state and local government web resources and services.